When you browse on this site, cookies collect data to enhance your experience and personalize the content and advertising you see.
Visit our Privacy Policy to learn more. By continuing to use the site, you agree to this use of cookies and data.
  • In Deutschland
  • Länderverzeichnis
  • Für 7 Tage
  • Wassertemperatur
  • Wetterkarte
  • Widgets
  • user-avatar
    Anmelden

    Stündliche Wetter Gendringen

    Heute, 21 Februar, Freitag

    Zeit Temperatur Niederschläge Wind Luftdruck Luftfeuchtigkeit
    00:00 +2°C° 0 mm 5 m/S 761 mmHg 76%
    01:00 +2°C° 0 mm 6 m/S 761 mmHg 77%
    02:00 +2°C° 0 mm 6 m/S 762 mmHg 78%
    03:00 +2°C° 0 mm 6 m/S 763 mmHg 79%
    04:00 +2°C° 0 mm 6 m/S 763 mmHg 80%
    05:00 +2°C° 0 mm 5 m/S 764 mmHg 81%
    06:00 +3°C° 0 mm 4 m/S 765 mmHg 81%
    13:00 +6°C° 0 mm 8 m/S 766 mmHg 68%
    14:00 +6°C° 0 mm 7 m/S 766 mmHg 70%
    15:00 +6°C° 0 mm 7 m/S 765 mmHg 72%
    16:00 +6°C° 0 mm 7 m/S 765 mmHg 73%
    17:00 +6°C° 0 mm 7 m/S 765 mmHg 73%
    18:00 +5°C° 0 mm 7 m/S 765 mmHg 74%
    19:00 +5°C° 0 mm 7 m/S 765 mmHg 74%
    20:00 +5°C° 0 mm 8 m/S 765 mmHg 74%
    21:00 +5°C° 0 mm 8 m/S 765 mmHg 74%
    22:00 +5°C° 0 mm 8 m/S 764 mmHg 75%
    23:00 +5°C° 0 mm 9 m/S 764 mmHg 76%

    Morgen, 22 Februar, Samstag

    Zeit Temperatur Niederschläge Wind Luftdruck Luftfeuchtigkeit
    00:00 +5°C° 0 mm 9 m/S 764 mmHg 76%
    01:00 +5°C° 0 mm 9 m/S 763 mmHg 77%
    02:00 +5°C° 0 mm 9 m/S 763 mmHg 78%
    03:00 +3°C° 0 mm 9 m/S 762 mmHg 79%
    04:00 +3°C° 0 mm 10 m/S 762 mmHg 76%
    05:00 +3°C° 0 mm 10 m/S 761 mmHg 74%
    06:00 +3°C° 0 mm 10 m/S 761 mmHg 71%
    07:00 +3°C° 0 mm 10 m/S 761 mmHg 70%
    08:00 +4°C° 0 mm 11 m/S 760 mmHg 68%
    09:00 +4°C° 0 mm 11 m/S 760 mmHg 67%
    10:00 +6°C° 0 mm 11 m/S 760 mmHg 69%
    11:00 +7°C° 0 mm 11 m/S 760 mmHg 72%
    12:00 +8°C° 0 mm 11 m/S 760 mmHg 75%
    13:00 +8°C° 0.2 mm 11 m/S 760 mmHg 74%
    14:00 +8°C° 0.2 mm 10 m/S 760 mmHg 74%
    15:00 +10°C° 0.2 mm 9 m/S 760 mmHg 73%
    16:00 +9°C° 0.1 mm 8 m/S 761 mmHg 73%
    17:00 +7°C° 0.1 mm 8 m/S 761 mmHg 72%
    18:00 +8°C° 0.1 mm 7 m/S 762 mmHg 72%
    19:00 +6°C° 0 mm 7 m/S 762 mmHg 71%
    20:00 +6°C° 0 mm 7 m/S 763 mmHg 71%
    21:00 +6°C° 0 mm 7 m/S 763 mmHg 70%
    22:00 +6°C° 0 mm 7 m/S 763 mmHg 71%
    23:00 +5°C° 0 mm 7 m/S 764 mmHg 71%

    übermorgen, 23 Februar, Sonntag

    Zeit Temperatur Niederschläge Wind Luftdruck Luftfeuchtigkeit
    00:00 +5°C° 0 mm 7 m/S 764 mmHg 72%
    01:00 +5°C° 0 mm 7 m/S 764 mmHg 72%
    02:00 +5°C° 0 mm 7 m/S 764 mmHg 73%
    03:00 +5°C° 0 mm 8 m/S 764 mmHg 74%
    04:00 +5°C° 0.2 mm 7 m/S 763 mmHg 78%
    05:00 +4°C° 0.2 mm 7 m/S 763 mmHg 83%
    06:00 +4°C° 0.2 mm 7 m/S 763 mmHg 88%
    07:00 +4°C° 0.8 mm 7 m/S 761 mmHg 89%
    08:00 +5°C° 0.8 mm 8 m/S 760 mmHg 90%
    09:00 +5°C° 0.8 mm 8 m/S 758 mmHg 92%
    10:00 +7°C° 2.1 mm 10 m/S 757 mmHg 89%
    11:00 +9°C° 2.1 mm 12 m/S 756 mmHg 86%
    12:00 +10°C° 2.1 mm 14 m/S 754 mmHg 83%
    13:00 +10°C° 0.3 mm 14 m/S 754 mmHg 83%
    14:00 +12°C° 0.3 mm 14 m/S 754 mmHg 82%
    15:00 +12°C° 0.3 mm 13 m/S 754 mmHg 82%
    16:00 +9°C° 0.9 mm 12 m/S 755 mmHg 82%
    17:00 +8°C° 0.9 mm 10 m/S 756 mmHg 83%
    18:00 +7°C° 0.9 mm 9 m/S 758 mmHg 83%
    19:00 +6°C° 0 mm 8 m/S 759 mmHg 83%
    20:00 +5°C° 0 mm 6 m/S 761 mmHg 82%
    21:00 +5°C° 0 mm 5 m/S 762 mmHg 82%
    22:00 +3°C° 0 mm 5 m/S 763 mmHg 80%
    23:00 +4°C° 0 mm 4 m/S 764 mmHg 79%

    24 Februar, Montag

    Zeit Temperatur Niederschläge Wind Luftdruck Luftfeuchtigkeit
    00:00 +3°C° 0 mm 3 m/S 765 mmHg 77%
    01:00 +2°C° 0 mm 3 m/S 765 mmHg 79%
    02:00 +2°C° 0 mm 3 m/S 765 mmHg 80%
    03:00 +2°C° 0 mm 3 m/S 765 mmHg 82%
    04:00 +2°C° 0 mm 3 m/S 765 mmHg 82%
    05:00 +2°C° 0 mm 3 m/S 765 mmHg 82%
    06:00 +2°C° 0 mm 3 m/S 765 mmHg 83%
    07:00 +2°C° 0.1 mm 3 m/S 765 mmHg 82%
    08:00 +3°C° 0.1 mm 3 m/S 764 mmHg 81%
    09:00 +3°C° 0.1 mm 3 m/S 764 mmHg 80%
    10:00 +4°C° 0.1 mm 4 m/S 763 mmHg 81%
    11:00 +5°C° 0.1 mm 5 m/S 762 mmHg 83%
    12:00 +4°C° 0.1 mm 6 m/S 760 mmHg 84%
    13:00 +6°C° 0 mm 7 m/S 759 mmHg 84%
    14:00 +8°C° 0 mm 7 m/S 758 mmHg 85%
    15:00 +10°C° 0 mm 8 m/S 757 mmHg 85%
    16:00 +9°C° 0 mm 8 m/S 756 mmHg 83%
    17:00 +9°C° 0 mm 8 m/S 756 mmHg 82%
    18:00 +9°C° 0 mm 8 m/S 755 mmHg 80%
    19:00 +9°C° 0 mm 8 m/S 755 mmHg 79%
    20:00 +9°C° 0 mm 8 m/S 754 mmHg 78%
    21:00 +8°C° 0 mm 9 m/S 754 mmHg 78%
    22:00 +9°C° 0.1 mm 8 m/S 754 mmHg 78%
    23:00 +9°C° 0.1 mm 8 m/S 754 mmHg 79%

    25 Februar, Dienstag

    Zeit Temperatur Niederschläge Wind Luftdruck Luftfeuchtigkeit
    00:00 +8°C° 0.1 mm 7 m/S 754 mmHg 80%
    01:00 +6°C° 0 mm 7 m/S 754 mmHg 80%
    02:00 +5°C° 0 mm 7 m/S 753 mmHg 79%
    03:00 +4°C° 0 mm 6 m/S 753 mmHg 78%
    04:00 +4°C° 0 mm 7 m/S 753 mmHg 77%
    05:00 +3°C° 0 mm 7 m/S 753 mmHg 75%
    06:00 +3°C° 0 mm 7 m/S 753 mmHg 73%
    07:00 +3°C° 0 mm 7 m/S 753 mmHg 71%
    08:00 +4°C° 0 mm 8 m/S 753 mmHg 69%
    09:00 +4°C° 0 mm 8 m/S 753 mmHg 66%
    10:00 +4°C° 0 mm 8 m/S 753 mmHg 66%
    11:00 +3°C° 0 mm 9 m/S 752 mmHg 65%
    12:00 +3°C° 0 mm 9 m/S 752 mmHg 64%
    13:00 +3°C° 0 mm 9 m/S 752 mmHg 63%
    14:00 +5°C° 0 mm 9 m/S 751 mmHg 62%
    15:00 +5°C° 0 mm 8 m/S 751 mmHg 61%
    16:00 +4°C° 0 mm 7 m/S 750 mmHg 64%
    17:00 +3°C° 0 mm 6 m/S 750 mmHg 67%
    18:00 +4°C° 0 mm 4 m/S 749 mmHg 70%
    19:00 +3°C° 0.5 mm 5 m/S 749 mmHg 77%
    20:00 +2°C° 0.5 mm 6 m/S 748 mmHg 84%
    21:00 +2°C° 0.5 mm 6 m/S 747 mmHg 91%
    22:00 +2°C° 1.3 mm 7 m/S 746 mmHg 91%
    23:00 +1°C° 1.3 mm 8 m/S 745 mmHg 91%

    26 Februar, Mittwoch

    Zeit Temperatur Niederschläge Wind Luftdruck Luftfeuchtigkeit
    00:00 0°C° 1.3 mm 9 m/S 744 mmHg 92%
    01:00 0°C° 0.7 mm 10 m/S 744 mmHg 86%
    02:00 -1°C° 0.7 mm 11 m/S 744 mmHg 81%
    03:00 -1°C° 0.7 mm 12 m/S 744 mmHg 75%
    04:00 -1°C° 0 mm 11 m/S 744 mmHg 76%
    05:00 -2°C° 0 mm 10 m/S 744 mmHg 76%
    06:00 -1°C° 0 mm 9 m/S 744 mmHg 77%
    07:00 -2°C° 0.2 mm 10 m/S 744 mmHg 77%
    08:00 -2°C° 0.2 mm 11 m/S 745 mmHg 78%
    09:00 -2°C° 0.2 mm 12 m/S 745 mmHg 78%
    10:00 -1°C° 0.2 mm 12 m/S 746 mmHg 79%
    11:00 -1°C° 0.2 mm 11 m/S 747 mmHg 80%
    12:00 +1°C° 0.2 mm 11 m/S 748 mmHg 81%
    13:00 +1°C° 0.1 mm 10 m/S 748 mmHg 76%
    14:00 +2°C° 0.1 mm 9 m/S 749 mmHg 72%
    15:00 +2°C° 0.1 mm 8 m/S 750 mmHg 68%
    16:00 +2°C° 0 mm 7 m/S 750 mmHg 71%
    17:00 +2°C° 0 mm 6 m/S 751 mmHg 75%
    18:00 +1°C° 0 mm 5 m/S 751 mmHg 78%
    19:00 +1°C° 0 mm 5 m/S 752 mmHg 79%
    20:00 +1°C° 0 mm 5 m/S 752 mmHg 81%
    21:00 +1°C° 0 mm 5 m/S 753 mmHg 82%
    22:00 +1°C° 0.1 mm 5 m/S 753 mmHg 80%
    23:00 +1°C° 0.1 mm 6 m/S 754 mmHg 78%
    Mehr zeigen